Location: W�rzburg
(49.7529°N, 9.8822°E)
Time: 16:34:02
(UTC+01:00)

ISS - Pass Details

Date: 14 February 2018
Orbit: 402 x 407 km, 51.6° (Epoch: 25 February)

Event Time Altitude Azimuth Distance (km) Brightness Sun altitude
Rises 18:24:29 0° 279° (W) 2,320 1.6 -8.2°
Reaches altitude 10° 18:27:46 10° 243° (WSW) 1,455 0.4 -8.7°
Maximum altitude 18:28:50 11° 224° (SW) 1,382 -0.2 -8.9°
Drops below altitude 10° 18:29:53 10° 205° (SSW) 1,452 -0.5 -9.0°
Sets 18:33:10 0° 169° (S) 2,306 0.0 -9.5°
